Flag for Canada Weather past 2 weeks in Peterborough, Ontario, Canada

Now
70 °F

Overcast.


Feels Like: 70 °F
Forecast: N/A
Wind: 14 mph from North

Location: Peterborough Airport

Current Time: Jul 23, 2014 at 7:46:40 PM

Latest Report: Jul 23, 2014 at 7:00 PM


Visibility: 9 mi

Pressure: 29.93 "Hg

Humidity: 60%

Dew point: 55 °F

Location of PeterboroughLocation

Historic Weather in Peterborough — Graph

°F

Peterborough temperature yesterday

Maximum temperature yesterday: 82 °F (at 12:00 PM)
Minimum temperature yesterday: 57 °F (at 5:50 AM)
Average temperature yesterday: 66 °F

Past Weeks' High & Low Weather Summary

 TemperatureHumidityPressure
High82 °F (Jul 22, 12:00 PM)100% (Jul 10, 2:00 AM)30.27 "Hg (Jul 10, 2:00 AM)
Low45 °F (Jul 17, 6:00 AM)36% (Jul 18, 2:00 PM)29.48 "Hg (Jul 8, 6:00 PM)
Average64 °F78%30.00 "Hg
* Reported Jul 8 6:00 PM — Jul 23 6:00 PM, Peterborough, Weather by CustomWeather, © 2014

Note: Actual official high and low records may vary slightly from our data, if they occured in-between our weather recording intervals... More about our weather records

Advertising

Peterborough weather history for previous 24 hours

 ConditionsComfort  
Time TempWeatherWind HumidityBarometerVisibility
6:00 PM
Jul 23
68 °FOvercast.16 mph64%29.93 "Hg9 mi
5:00 PM70 °FOvercast.16 mph60%29.91 "Hg9 mi
4:00 PM70 °FPartly sunny.17 mph64%29.92 "Hg9 mi
3:00 PM73 °FOvercast.20 mph61%29.89 "Hg9 mi
2:00 PM75 °FMostly cloudy.13 mph61%29.87 "Hg9 mi
1:00 PM73 °FCloudy.13 mph69%29.87 "Hg9 mi
12:00 PM75 °FBroken clouds.12 mph69%29.87 "Hg9 mi
11:01 AM72 °FCloudy.14 mph73%29.86 "Hg9 mi
11:00 AM72 °FMostly cloudy.14 mph73%29.86 "Hg9 mi
10:58 AM72 °FMostly cloudy.13 mph73%29.86 "Hg9 mi
10:00 AM68 °FOvercast.12 mph83%29.87 "Hg9 mi
9:02 AM68 °FPartly sunny.14 mph83%29.86 "Hg9 mi
7:00 AM73 °FBroken clouds.8 mph83%29.84 "Hg9 mi
6:00 AM73 °FOvercast.6 mph83%29.81 "Hg9 mi
5:00 AM73 °FPassing clouds.7 mph83%29.80 "Hg9 mi
4:00 AM72 °FMostly cloudy.5 mph83%29.82 "Hg9 mi
2:00 AM70 °FPassing clouds.5 mph88%29.85 "Hg9 mi
1:00 AM70 °FMostly cloudy.6 mph83%29.87 "Hg9 mi
12:00 AM68 °FMostly cloudy.6 mph83%29.88 "Hg9 mi
11:00 PM
Jul 22
66 °FPassing clouds.5 mph88%29.93 "Hg9 mi
10:00 PM68 °FClear.2 mph83%29.93 "Hg9 mi
9:00 PM72 °FSunny.12 mph69%29.90 "Hg9 mi
8:00 PM75 °FSunny.7 mph65%29.95 "Hg9 mi
7:00 PM79 °FSunny.10 mph58%29.97 "Hg9 mi
Weather by CustomWeather, © 2014

See weather overviewHow to use our weather pages